www.pogodaiklimat.ru

Погода и климат >> Архив погоды >> Испания >> Madrid


АРХИВ ПОГОДЫ в Madrid

Время (UTC), дата Ветер
(напр.,м/с)
 
Видим.   Явления Облачность Т
(С)
Тd
(С)
f
(%)
Тe
(С)
Тes
(С)
Комфортность P
(гПа)
Po
(гПа)
Тmin
(С)
Tmax
(С)
R
(мм)
R24
(мм)
S
(см)
01 16.10 В 2 30 км ясно +19.0 +10.4 57 +20 +20 тепло 1022.9 956.4
02 16.10 С 1 30 км ясно +15.5 +8.1 61 +16 +16 тепло 1023.9 956.5
03 16.10 В 1 30 км ясно +14.1 +8.5 69 +15 +15 тепло 1024.3 956.6
05 16.10 ЮВ 1 30 км ясно +14.7 +11.3 80 +15 +15 тепло 1024.7 957.2
04 16.10 Ю 4 30 км ясно +16.3 +11.2 72 +16 +16 тепло 1023.9 956.7
06 16.10 С 2 30 км ясно +13.0 +9.3 78 +13 +13 тепло 1025.3 957.3 +13.0
07 16.10 СЗ 2 30 км ясно +11.7 +6.6 71 +11 +11 по сезону 1026.3 957.9
08 16.10 СЗ 2 30 км ясно +14.2 +6.7 61 +14 +15 по сезону 1026.6 958.7
09 16.10 С 2 30 км ясно +17.5 +9.7 60 +18 +21 тепло 1025.9 958.8
11 16.10 ЮВ 2 30 км ясно +21.3 +10.8 51 +23 +31 комфорт 1024.3 958.2
10 16.10 ЮВ 2 30 км ясно +20.0 +10.8 55 +22 +28 комфорт 1025.0 958.6
12 16.10 Ю 2 30 км ясно +22.8 +10.8 47 +25 +33 комфорт 1023.2 957.5
13 16.10 Ю 2 30 км ясно +24.5 +10.5 41 +26 +34 жарко 1021.8 956.5
14 16.10 ЮВ 2 30 км ясно +25.8 +9.2 35 +26 +33 жарко 1020.7 955.7
15 16.10 З 1 30 км ясно +26.1 +8.4 33 +26 +31 жарко 1020.1 955.2
17 16.10 С 1 30 км ясно +25.5 +7.4 32 +26 +26 жарко 1019.7 954.7
16 16.10 С 1 30 км ясно +26.3 +7.7 31 +26 +28 жарко 1019.6 954.8
18 16.10 С 2 30 км ясно +21.5 +7.6 41 +22 +22 комфорт 1020.7 954.9 +26.9
19 16.10 штиль 0 30 км ясно +19.7 +7.4 45 +20 +20 тепло 1021.4 955.1
20 16.10 С 1 30 км ясно +18.2 +7.5 50 +19 +19 тепло 1021.9 955.2
21 16.10 С 1 30 км ясно +16.6 +7.3 54 +18 +18 тепло 1022.5 955.4
23 16.10 С 2 27 км ясно +13.9 +6.3 60 +13 +13 тепло 1023.4 955.7
22 16.10 С 2 27 км н/о +15.7 +6.9 56 +16 +16 тепло 1022.7 955.4
00 17.10 В 2 25 км ясно +13.4 +6.6 63 +13 +13 по сезону 1023.4 955.6
01 17.10 С 2 30 км н/о +12.1 +5.9 66 +11 +11 тепло 1023.5 955.3
02 17.10 С 2 30 км н/о +11.6 +6.2 69 +11 +11 тепло 1023.3 955.0
03 17.10 С 2 30 км 4/0
[Ac und]
+10.7 +5.5 70 +9 +9 по сезону 1023.1 954.6
05 17.10 С 2 30 км 4/0
[Ac und]
+10.9 +5.6 70 +10 +10 тепло 1022.8 954.4
04 17.10 С 2 30 км 4/0
[Ac und]
+10.3 +5.6 73 +9 +9 по сезону 1022.6 954.1
06 17.10 СЗ 3 30 км 4/0
[Ac und]
+10.8 +5.4 69 +9 +9 по сезону 1022.6 954.2 +10.1
07 17.10 СЗ 2 30 км 8/0
[Ac und Cs]
+11.2 +5.6 68 +11 +11 по сезону 1022.8 954.5
08 17.10 СЗ 3 30 км 8/0
[Ac und Cs]
+13.1 +6.6 65 +12 +12 по сезону 1022.9 955.0
09 17.10 СВ 1 27 км 10/0
[Ac und Cs]
+14.9 +8.2 64 +15 +18 тепло 1021.8 954.4
11 17.10 В 1 30 км 10/0
[Ac und Cs]
+17.8 +9.7 59 +19 +24 по сезону 1020.4 953.8
10 17.10 З 2 30 км 10/0
[Ac und Cs]
+16.8 +9.6 62 +17 +21 по сезону 1021.2 954.3
12 17.10 Ю 5 20 км 9/0
[Ac und Cs]
+20.8 +10.2 51 +23 +26 комфорт 1019.0 953.2
13 17.10 ЮЗ 5 30 км 10/0
[Ac und Cs]
+20.9 +8.7 46 +22 +25 комфорт 1018.1 952.3
14 17.10 ЮЗ 4 30 км 10/0
[Ac trans Cs]
+21.2 +9.3 47 +23 +26 комфорт 1017.3 951.7
15 17.10 СЗ 2 30 км слабый дождь 10/4
[Sc Ac As Cs]
+20.0 +9.9 52 +22 +23 комфорт 1017.1 951.2
17 17.10 Ю 5 28 км 10/10
[Cu med, cong Ac und Cs]
+17.3 +13.2 77 +17 +17 по сезону 1017.7 951.2
16 17.10 С 3 26 км 10/3
[Sc Ac As Cs]
+18.4 +11.8 65 +19 +20 тепло 1017.1 950.9
18 17.10 Ю 4 30 км 10/8
[Cu med, cong Ac und Cs]
+16.3 +12.9 80 +16 +16 по сезону 1017.8 951.1 +21.3 0.3
19 17.10 Ю 3 28 км 10/8
[Cu med, cong Ac und Cs]
+15.7 +12.7 82 +15 +15 тепло 1017.8 950.9
20 17.10 В 2 12 км 9/3 2000 м
[Cu Sc Ac und Cs]
+15.2 +13.4 89 +15 +15 по сезону 1017.7 950.7
21 17.10 ЮВ 2 15 км 9/3 1000 м
[Cu Sc Ac und Cs]
+14.9 +13.1 89 +15 +15 по сезону 1017.6 950.6 0.1
23 17.10 Ю 3 20 км 8/3 600 м
[Cu Sc Ac trans Cs]
+15.2 +13.5 90 +15 +15 тепло 1016.7 949.8
22 17.10 В 2 15 км 8/3 1000 м
[Cu Sc Ac und Cs]
+15.0 +13.1 88 +15 +15 тепло 1017.3 950.3
00 18.10 ЮВ 2 15 км {дождь} 8/3 600 м
[Cu Sc Ac und Cs]
+14.4 +13.3 93 +14 +14 тепло 1015.9 948.9 0.8
01 18.10 Ю 3 15 км слабая морось 10/5 600 м
[Cu Sc Ac trans Cs]
+14.7 +13.4 92 +14 +14 тепло 1015.5 948.6
02 18.10 ЮВ 4 10 км {морось} 10/5 200 м
[Cu Sc Ac trans Cs]
+14.5 +13.8 96 +13 +13 тепло 1014.7 947.8
03 18.10 ЮВ 1 14 км 10/1 300 м
[Cu Sc Ac trans Cs]
+13.8 +12.7 93 +14 +14 тепло 1013.9 946.9 0.2
05 18.10 штиль 0 7000 м дождь {морось} 10/5 900 м
[Cb calv As op Ci]
+13.8 +12.9 94 +13 +13 тепло 1011.9 945.0
04 18.10 СВ 1 9000 м дымка 10/5 300 м
[Cu Sc Ac trans Cs]
+13.8 +13.1 96 +14 +14 тепло 1012.7 945.8
06 18.10 Ю 3 10 км дождь 10/1 200 м
[Frnb Ac cuf Cs]
+12.6 +11.3 92 +11 +11 тепло 1012.2 945.0 +12.6 12
07 18.10 Ю 3 14 км слабый дождь {морось} 10/4 1000 м
[Frnb Ac cuf Cs]
+12.9 +11.8 93 +11 +11 по сезону 1012.5 945.3
08 18.10 Ю 4 12 км слабый дождь {морось} 10/3 600 м
[Frnb As op Cs]
+13.0 +12.1 94 +11 +11 по сезону 1012.8 945.6
09 18.10 ЮВ 4 10 км дождь 10/8 100 м
[Frnb Ac As]
+13.4 +12.2 92 +12 +12 по сезону 1012.7 945.6 2
11 18.10 Ю 4 15 км 10/5 300 м
[Frnb As op]
+13.5 +12.6 94 +12 +12 холодно 1011.9 944.9
12 18.10 Ю 4 22 км слабый дождь {морось} 10/5 300 м
[Frnb Ac As]
+14.0 +12.4 90 +13 +14 прохладно 1011.0 944.2 2
13 18.10 ЮЗ 7 20 км {морось} 10/8 300 м
[Cu Sc As op]
+13.9 +11.1 83 +12 +12 холодно 1010.6 943.8
14 18.10 ЮЗ 7 20 км слабая морось 10/8 600 м
[Cu Sc As op]
+13.8 +10.8 82 +12 +12 холодно 1009.9 943.1
15 18.10 Ю 6 20 км {морось} 9/6 600 м
[Cu Sc As op]
+13.8 +11.0 83 +12 +12 холодно 1009.9 943.1 0.0
16 18.10 ЮЗ 6 25 км 8/8 600 м
[Cu Sc Ac trans]
+14.1 +10.1 77 +12 +12 холодно 1010.0 943.2
17 18.10 ЮЗ 5 15 км гроза, ливневой дождь 8/8 1200 м
[Cb calv Ac trans]
+12.2 +9.4 83 +10 +10 холодно 1010.9 943.6
18 18.10 ЮЗ 3 20 км слабая морось {гроза, дождь} 8/8 600 м
[Cu Sc Ac trans]
+11.8 +9.4 85 +10 +10 холодно 1011.3 943.9 +14.2 2
19 18.10 Ю 2 20 км 8/0
[Ac As]
+11.3 +10.0 92 +10 +10 прохладно 1012.2 944.6
20 18.10 В 2 10 км 9/5 300 м
[Cu Sc Ac As]
+10.9 +9.8 93 +9 +9 прохладно 1012.9 945.3
21 18.10 ЮВ 3 14 км 8/5 1000 м
[Cu Sc Ac As Cs]
+10.6 +9.9 95 +9 +9 прохладно 1013.2 945.5
22 18.10 СВ 1 13 км 8/4 1000 м
[Cu Sc Ac As Cs]
+9.6 +8.9 95 +9 +9 по сезону 1013.6 945.6
23 18.10 В 1 6000 м 9/4 2000 м
[Cu Sc Ac As Cs]
+9.0 +8.3 95 +8 +8 по сезону 1013.6 945.4
00 19.10 С 1 2000 м 9/0
[Ac As Cs]
+8.5 +8.0 97 +9 +9 по сезону 1013.3 945.0 0.0
01 19.10 штиль 0 2000 м 9/0
[Ac As Cs]
+8.0 +7.6 97 +7 +7 по сезону 1013.4 945.0
02 19.10 ЮВ 1 2000 м 9/0
[Ac As Cs]
+8.1 +7.6 97 +7 +7 по сезону 1013.2 944.8
03 19.10 С 2 н/о н/о +7.3 +7.0 98 +5 +5 прохладно 1012.9 944.3 0.0
04 19.10 СЗ 2 400 м сильная пыльная буря {метель} 10/10 <50 м
[]
+8.3 +8.1 99 +7 +7 по сезону 1012.9 944.6
05 19.10 С 2 2200 м дымка 10/10 100 м
[Frnb]
+8.9 +8.6 98 +7 +7 по сезону 1012.9 944.8
06 19.10 СВ 1 1800 м дымка 9/8 100 м
[Frnb Ac As]
+9.0 +8.7 98 +9 +9 по сезону 1012.8 944.7 +7.2 0.0
07 19.10 СВ 1 2200 м дымка 9/8 100 м
[Frnb Ac As]
+9.0 +8.6 97 +8 +8 прохладно 1013.3 945.2
08 19.10 В 1 4000 м дымка 9/8 100 м
[Frnb Ac As]
+9.1 +8.3 95 +8 +8 прохладно 1014.0 945.8
09 19.10 СВ 1 10 км 8/8 100 м
[Frnb Ac As]
+10.4 +9.2 92 +10 +11 прохладно 1014.1 946.3 0.0
10 19.10 ЮВ 2 10 км 8/8 100 м
[Frnb Ac As]
+12.2 +9.5 84 +12 +13 холодно 1013.8 946.3
11 19.10 В 2 10 км 8/8 100 м
[Frnb Ac As]
+14.1 +10.0 76 +14 +16 прохладно 1013.1 946.1
12 19.10 ЮВ 3 29 км н/о +15.5 +7.7 60 +15 +15 прохладно 1012.7 946.0
13 19.10 ЮВ 2 30 км н/о +16.0 +8.0 59 +16 +16 по сезону 1011.8 945.3
14 19.10 ЮЗ 5 23 км 5/5 2000 м
[Cu hum]
+18.2 +4.5 40 +18 +20 по сезону 1011.1 945.1
15 19.10 З 4 30 км 3/3 1500 м
[Cu Sc Ac lent]
+18.8 +5.2 41 +19 +21 тепло 1010.7 944.9
16 19.10 З 6 30 км 3/1
[Cu Sc Ac lent Ci fib]
+18.5 +5.3 42 +18 +19 тепло 1011.1 945.2
17 19.10 З 5 30 км 3/1 1500 м
[Cu Sc Ac lent Ci fib]
+17.3 +5.6 46 +17 +17 по сезону 1012.4 946.1
18 19.10 З 3 30 км 1/0
[Ac trans Ci fib]
+16.0 +5.8 51 +16 +16 по сезону 1013.2 946.6 +19.0
19 19.10 З 4 30 км 3/0
[Ci fib]
+15.1 +5.9 54 +14 +14 по сезону 1014.2 947.3
20 19.10 С 3 30 км 4/0
[Ac und]
+14.9 +7.1 60 +14 +14 по сезону 1015.2 948.2
21 19.10 СЗ 1 30 км 6/0
[Ac und]
+13.9 +6.5 61 +14 +14 по сезону 1015.8 948.5
22 19.10 З 2 30 км 1/0
[Cs]
+13.4 +8.0 70 +13 +13 тепло 1016.6 949.2
23 19.10 СЗ 2 30 км 4/1 1500 м
[Sc Cs]
+12.3 +8.1 76 +12 +12 тепло 1017.3 949.7
00 20.10 С 3 30 км 9/1 1500 м
[Sc Cs]
+13.0 +8.9 76 +12 +12 по сезону 1017.4 949.8
01 20.10 ЮВ 1 30 км 1/0
[Cs]
+12.0 +8.6 80 +13 +13 тепло 1017.7 950.0
02 20.10 В 2 30 км 9/1 1500 м
[Sc Cs]
+11.0 +8.5 85 +10 +10 по сезону 1018.2 950.2
03 20.10 В 2 30 км 3/1 600 м
[Cu hum Ci fib]
+10.7 +8.6 87 +10 +10 по сезону 1018.4 950.3
04 20.10 ЮВ 1 26 км н/о +10.6 +8.6 87 +10 +10 тепло 1018.3 950.2
05 20.10 ЮВ 2 30 км ясно +10.3 +8.4 88 +9 +9 по сезону 1018.9 950.7
06 20.10 ЮВ 3 20 км 1/0
[As trans]
+9.9 +8.5 91 +8 +8 по сезону 1019.5 951.1 +9.9
07 20.10 ЮВ 2 15 км 1/0
[As trans]
+10.0 +8.7 92 +8 +8 прохладно 1020.3 951.9
08 20.10 Ю 2 15 км 1/0
[Ci fib]
+12.6 +10.2 85 +12 +12 по сезону 1020.4 952.7
09 20.10 ЮВ 2 12 км 1/1 200 м
[St]
+14.5 +10.9 79 +14 +17 по сезону 1020.7 953.3
10 20.10 ЮВ 3 10 км 1/1 200 м
[St]
+15.6 +11.7 78 +15 +19 по сезону 1020.8 953.7
11 20.10 ЮВ 5 15 км 3/3 300 м
[Cu Sc]
+16.9 +12.4 75 +16 +19 по сезону 1020.5 953.7
12 20.10 Ю 5 25 км 4/4 600 м
[Cu Sc]
+17.8 +12.8 73 +17 +20 по сезону 1019.9 953.4
13 20.10 ЮВ 5 25 км 3/3 600 м
[Cu hum]
+19.0 +12.8 67 +20 +23 тепло 1019.2 953.0
14 20.10 Ю 5 30 км 3/3 600 м
[Sc diur, vesp]
+20.3 +12.9 62 +22 +25 комфорт 1018.6 952.7
15 20.10 Ю 6 30 км 1/1 1000 м
[Sc diur, vesp]
+20.9 +12.8 60 +23 +25 комфорт 1018.5 952.8
16 20.10 Ю 5 30 км 1/1 1000 м
[Sc diur, vesp]
+20.7 +12.3 59 +23 +24 комфорт 1018.5 952.7
17 20.10 Ю 4 30 км 1/1 1000 м
[Sc diur, vesp]
+19.8 +12.0 61 +21 +21 комфорт 1018.8 952.8
18 20.10 Ю 3 30 км ясно +18.2 +12.1 68 +19 +19 тепло 1019.6 953.2 +21.1
19 20.10 ЮВ 2 30 км 1/1 1000 м
[Sc diur, vesp]
+16.6 +12.1 75 +17 +17 тепло 1020.8 953.9
20 20.10 ЮВ 3 24 км 1/1
[Sc diur, vesp]
+15.8 +12.9 83 +15 +15 тепло 1021.3 954.2
21 20.10 В 3 15 км 4/4 1500 м
[Sc diur, vesp]
+14.9 +12.9 88 +14 +14 по сезону 1021.8 954.5
22 20.10 В 1 16 км 5/5 1500 м
[Sc diur, vesp]
+15.5 +13.0 85 +17 +17 тепло 1022.1 954.9
23 20.10 ЮВ 2 30 км 4/4 1500 м
[Sc diur, vesp]
+14.7 +12.6 87 +14 +14 тепло 1022.1 954.7
00 21.10 ЮВ 1 10 км 4/4 1500 м
[Sc diur, vesp]
+14.2 +12.5 90 +14 +14 тепло 1022.2 954.7
01 21.10 СВ 1 6000 м дымка 4/4 1500 м
[Sc diur, vesp]
+12.8 +11.7 93 +13 +13 тепло 1022.3 954.5
02 21.10 СЗ 1 8000 м дымка 4/4 2000 м
[Sc diur, vesp]
+13.2 +12.1 93 +14 +14 тепло 1022.3 954.6
03 21.10 штиль 0 8000 м дымка 6/6 300 м
[Sc Ci fib]
+13.5 +12.3 92 +13 +13 тепло 1022.0 954.4
04 21.10 В 1 8000 м дымка 9/9 200 м
[Frnb Ci fib]
+14.1 +12.7 91 +14 +14 тепло 1021.8 954.3
05 21.10 С 3 3000 м слабая морось {туман} 10/10 200 м
[Frnb]
+13.7 +13.1 96 +13 +13 тепло 1022.4 954.9
06 21.10 С 1 2000 м в посл. час морось {туман} 10/10 50 м
[Frnb]
+14.0 +13.4 96 +15 +15 тепло 1022.6 955.0 +12.8
07 21.10 СВ 1 2000 м дымка {туман} 10/10 50 м
[Frnb]
+14.4 +13.7 96 +15 +15 тепло 1023.1 955.6
08 21.10 ЮЗ 1 3000 м дымка {туман} 10/10 50 м
[Frnb]
+14.9 +13.9 94 +16 +16 тепло 1023.5 956.1
09 21.10 Ю 1 5000 м дымка {туман} 10/10 50 м
[Frnb]
+15.9 +14.3 90 +17 +17 тепло 1023.7 956.5
10 21.10 ЮВ 2 7000 м дымка 10/10 300 м
[Frnb Ci sp]
+17.4 +15.4 88 +18 +18 по сезону 1023.1 956.3
11 21.10 Ю 3 30 км 9/6 600 м
[Frnb Ci sp]
+20.1 +14.4 70 +23 +25 комфорт 1022.1 956.0
12 21.10 Ю 2 30 км 9/6 2000 м
[Sc Ci sp]
+21.3 +13.8 62 +24 +27 комфорт 1021.2 955.4
13 21.10 Ю 4 30 км 9/6 1000 м
[Cu Sc Ac cuf Ci sp]
+22.3 +13.1 56 +25 +27 комфорт 1020.2 954.6
14 21.10 ЮЗ 4 30 км 9/6 1000 м
[Cu Sc Ac cuf Ci sp]
+22.2 +12.3 53 +25 +26 комфорт 1019.8 954.2
15 21.10 ЮЗ 4 30 км 9/8 1000 м
[Cu Sc Ac lent Ci sp]
+21.8 +13.1 58 +24 +25 комфорт 1019.9 954.3
16 21.10 З 3 30 км 9/8
[Cu Sc Ac lent Ci sp]
+22.3 +11.3 50 +24 +25 комфорт 1019.9 954.4
17 21.10 З 4 30 км 9/8 1500 м
[Cu Sc Ac lent Ci sp]
+20.7 +9.8 50 +22 +22 комфорт 1020.6 954.6
18 21.10 СЗ 4 30 км 8/5 1500 м
[Cu Sc Ac lent Ci sp]
+18.6 +9.6 56 +19 +19 тепло 1021.7 955.2 +22.9
19 21.10 СЗ 2 30 км 9/8 1500 м
[Cu Sc Ac lent Ci sp]
+16.8 +10.2 65 +17 +17 тепло 1023.0 956.0
20 21.10 СВ 2 30 км 6/4 1500 м
[Cu Sc Ac lent Ci sp]
+15.5 +8.2 62 +16 +16 тепло 1024.3 956.8
21 21.10 В 2 30 км 6/4
[Cu Sc Ac lent Ci sp]
+14.5 +7.8 64 +15 +15 тепло 1024.6 957.0
22 21.10 СВ 1 30 км 6/6 1000 м
[Cu Sc Ac lent Ci sp]
+13.9 +6.3 60 +15 +15 тепло 1025.2 957.4
23 21.10 С 1 30 км 3/3 1000 м
[Cu Sc]
+12.7 +5.6 62 +14 +14 тепло 1025.6 957.4
00 22.10 СВ 2 30 км 1/1 1000 м
[Cu Sc]
+12.3 +5.1 61 +12 +12 по сезону 1026.4 958.1
01 22.10 СВ 1 30 км 1/1 1000 м
[Cu Sc]
+10.6 +5.1 69 +10 +10 тепло 1026.6 957.8
02 22.10 С 2 30 км ясно +10.3 +5.7 73 +9 +9 по сезону 1026.6 957.8
03 22.10 СЗ 3 30 км ясно +10.0 +5.8 75 +8 +8 по сезону 1026.5 957.6
04 22.10 СЗ 3 30 км ясно +9.0 +5.9 81 +7 +7 тепло 1027.1 957.9
05 22.10 СЗ 3 30 км ясно +8.8 +5.5 80 +6 +6 по сезону 1027.5 958.2
06 22.10 СЗ 3 30 км ясно +8.4 +5.2 80 +6 +6 по сезону 1027.6 958.2 +8.2
07 22.10 С 4 30 км ясно +8.3 +5.2 81 +5 +5 холодно 1028.2 958.8
08 22.10 С 3 20 км ясно +9.7 +5.9 77 +8 +8 прохладно 1028.3 959.2
09 22.10 С 2 30 км ясно +12.1 +6.6 69 +12 +14 по сезону 1028.1 959.6
10 22.10 СВ 2 30 км 4/0
[Ci fib]
+15.0 +6.8 58 +15 +19 по сезону 1027.4 959.7
11 22.10 С 4 30 км 4/0
[Ci fib]
+16.3 +5.7 49 +16 +20 по сезону 1027.0 959.5
12 22.10 СВ 3 30 км 4/0
[Ci fib]
+17.4 +5.3 45 +18 +24 тепло 1025.8 958.6
13 22.10 СВ 2 30 км 3/0
[Ci sp]
+18.3 +4.9 41 +19 +27 тепло 1024.8 957.9
14 22.10 СЗ 3 26 км н/о +18.6 +4.3 39 +19 +19 тепло 1024.1 957.3
15 22.10 В 1 30 км 4/0
[Ci sp]
+19.8 +4.3 36 +21 +25 комфорт 1023.4 956.9
16 22.10 С 1 30 км 8/0
[Cs]
+19.3 +3.9 36 +21 +22 комфорт 1023.4 956.8
17 22.10 штиль 0 30 км 3/0
[Cs]
+17.6 +4.9 43 +18 +18 тепло 1023.7 956.7
18 22.10 штиль 0 30 км 10/0
[Cs]
+14.6 +4.4 50 +15 +15 по сезону 1025.2 957.5 +19.8
20 22.10 С 2 30 км 9/0
[Cs]
+12.7 +6.7 67 +12 +12 по сезону 1026.4 958.2
21 22.10 СЗ 2 30 км 8/0
[Cs]
+12.1 +5.8 65 +12 +12 по сезону 1026.9 958.5
22 22.10 С 1 30 км 3/0
[Ci sp]
+11.3 +5.0 65 +11 +11 тепло 1027.4 958.8
23 22.10 СЗ 3 30 км ясно +10.4 +5.4 71 +8 +8 тепло 1027.7 958.8

 

Местоположение метеостанции Madrid (Испания): широта 40.45 долгота -3.55 высота над уровнем моря 582 м.

В архиве по умолчанию представлена погода в Madrid за последнюю неделю. Архивные данные за месяц целиком и за предыдущие месяцы, начиная с января 2011 года, Вы можете получить, выбрав интересующий диапазон дат из раскрывающегося списка и нажав кнопку "Ввод!".

Внимание! Время в таблицах - всемирное. Для получения местного времени необходимо прибавить поправку, которая в Madrid равна 1 ч.

Смотрите также архив погоды в соседних городах и на ближайших метеорологических станциях:

Погода в Madrid Airport (Испания) (22 км)
Погода в Guadalajara (Испания) (39 км)
Погода в Navacerrada (Испания) (54 км)
Погода в Segovia (Испания) (74 км)
Погода в Toledo (Испания) (76 км)
Погода в Avila (Испания) (100 км)
Погода в Cuenca (Испания) (128 км)
Погода в Molina de Aragon (Испания) (148 км)
Погода в Ciudad Real (Испания) (167 км)
Погода в Valladolid (Испания) (168 км)

Пояснения к столбцам:

Ветер - указаны скорость ветра в м/с - средняя за 10 мин, порывы в срок и между сроками (в фигурных скобках) и направление, откуда дует ветер: С - северный, СВ - северо-восточный, В - восточный, ЮВ - юго-восточный, Ю - южный, ЮЗ - юго-западный, З - западный, СЗ - северо-западный.
Видимость - горизонтальная дальность видимости в метрах или километрах. При видимости от 1 до 10 км при отсутствии осадков обычно наблюдается дымка, при ухудшении видимости до 1 км и менее - туман. В сухую погоду видимость может ухудшаться дымом, пылью или мглою.
Явления - указаны атмосферные явления, наблюдавшиеся в срок или в последний час перед сроком; фигурными скобками обозначены явления, наблюдавшиеся между сроками (за 1-3 часа до срока); квадратными скобками обозначены град или гололедные отложения с указанием их диаметра в мм.
Облачность - указаны через наклонную черту общая и нижняя облачность в баллах и высота нижней границы облаков в метрах; квадратными скобками обозначены формы облаков: Ci - перистые, Cs - перисто-слоистые, Cc - перисто-кучевые, Ac - высококучевые, As - высокослоистые, Sc - слоисто-кучевые, Ns - слоисто-дождевые, Cu - кучевые, Cb - кучево-дождевые. Подробнее классификацию облаков см. в Атласе облаков (PDF).
T - Температура воздуха - температура, измеренная на высоте 2 м над землей.
Td - Температура точки росы - температура, при понижении до которой содержащийся в воздухе водяной пар достигнет насыщения.
f - Относительная влажность воздуха - влажноcть воздуха, измеренная на высоте 2 м над землей.
Te - Эффективная температура - температура, которую ощущает одетый по сезону человек в тени. Характеристика душности погоды. При расчете учитывается влияние влажности воздуха и скорости ветра на теплоощущения человека.
Tes - Эффективная температура на солнце - температура, которую ощущает человек, с поправкой на солнечный нагрев. Характеристика знойности погоды. Зависит от высоты солнца над горизонтом, облачности и скорости ветра. Ночью, в пасмурную погоду, а также при ветре 12 м/с и более поправка равна нулю.
P - Атмосферное давление - приведенное к уровню моря атмосферное давление.
Po - Атмосферное давление - измеренное на уровне метеостанции атмосферное давление.
Tmin - Минимальная температура - минимум температуры воздуха на высоте 2 м над землей.
Tmax - Максимальная температура - максимум температуры воздуха на высоте 2 м над землей.
R - Количество осадков - Количество выпавших осадков за период времени, мм. При наведении курсора мыши на число - период времени, за который выпало указанное количество осадков.
R24 - Количество осадков - Количество выпавших осадков за 24 часа, мм.
S - Снежный покров - Высота снежного покрова, см. При наведении курсора мыши на число - состояние снежного покрова и степень покрытия местности в баллах.